Year,Month,Day,Hour,Minute,Value (Times are PST for temperature in C)
2015,05,29,00,00,13.40
2015,05,29,00,01,13.40
2015,05,29,00,02,13.40
2015,05,29,00,03,13.40
2015,05,29,00,04,13.40
2015,05,29,00,05,13.40
2015,05,29,00,06,13.40
2015,05,29,00,07,13.40
2015,05,29,00,08,13.50
2015,05,29,00,09,13.50
2015,05,29,00,10,13.50
2015,05,29,00,11,13.50
2015,05,29,00,12,13.50
2015,05,29,00,13,13.50
2015,05,29,00,14,13.50
2015,05,29,00,15,13.50
2015,05,29,00,16,13.50
2015,05,29,00,17,13.50
2015,05,29,00,18,13.50
2015,05,29,00,19,13.50
2015,05,29,00,20,13.50
2015,05,29,00,21,13.60
2015,05,29,00,22,13.60
2015,05,29,00,23,13.60
2015,05,29,00,24,13.60
2015,05,29,00,25,13.70
2015,05,29,00,26,13.70
2015,05,29,00,27,13.70
2015,05,29,00,28,13.70
2015,05,29,00,29,13.70
2015,05,29,00,30,13.80
2015,05,29,00,31,13.80
2015,05,29,00,32,13.80
2015,05,29,00,33,13.80
2015,05,29,00,34,13.80
2015,05,29,00,35,13.80
2015,05,29,00,36,13.80
2015,05,29,00,37,13.80
2015,05,29,00,38,13.80
2015,05,29,00,39,13.80
2015,05,29,00,40,13.80
2015,05,29,00,41,13.80
2015,05,29,00,42,13.80
2015,05,29,00,43,13.80
2015,05,29,00,44,13.80
2015,05,29,00,45,13.80
2015,05,29,00,46,13.80
2015,05,29,00,47,13.80
2015,05,29,00,48,13.80
2015,05,29,00,49,13.90
2015,05,29,00,50,13.90
2015,05,29,00,51,13.90
2015,05,29,00,52,13.90
2015,05,29,00,53,13.90
2015,05,29,00,54,13.90
2015,05,29,00,55,13.90
2015,05,29,00,56,13.90
2015,05,29,00,57,13.90
2015,05,29,00,58,13.90
2015,05,29,00,59,13.90
2015,05,29,01,00,13.90
2015,05,29,01,01,13.90
2015,05,29,01,02,13.90
2015,05,29,01,03,14.00
2015,05,29,01,04,14.00
2015,05,29,01,05,14.00
2015,05,29,01,06,14.00
2015,05,29,01,07,14.00
2015,05,29,01,08,14.00
2015,05,29,01,09,14.00
2015,05,29,01,10,14.00
2015,05,29,01,11,14.00
2015,05,29,01,12,14.00
2015,05,29,01,13,14.00
2015,05,29,01,14,14.00
2015,05,29,01,15,14.00
2015,05,29,01,16,14.00
2015,05,29,01,17,14.10
2015,05,29,01,18,14.10
2015,05,29,01,19,14.10
2015,05,29,01,20,14.10
2015,05,29,01,21,14.10
2015,05,29,01,22,14.10
2015,05,29,01,23,14.10
2015,05,29,01,24,14.10
2015,05,29,01,25,14.10
2015,05,29,01,26,14.10
2015,05,29,01,27,14.10
2015,05,29,01,28,14.10
2015,05,29,01,29,14.10
2015,05,29,01,30,14.10
2015,05,29,01,31,14.10
2015,05,29,01,32,14.10
2015,05,29,01,33,14.10
2015,05,29,01,34,14.10
2015,05,29,01,35,14.10
2015,05,29,01,36,14.10
2015,05,29,01,37,14.10
2015,05,29,01,38,14.10
2015,05,29,01,39,14.10
2015,05,29,01,40,14.00
2015,05,29,01,41,14.00
2015,05,29,01,42,14.00
2015,05,29,01,43,13.90
2015,05,29,01,44,13.90
2015,05,29,01,45,13.90
2015,05,29,01,46,13.90
2015,05,29,01,47,13.80
2015,05,29,01,48,13.80
2015,05,29,01,49,13.80
2015,05,29,01,50,13.80
2015,05,29,01,51,13.80
2015,05,29,01,52,13.70
2015,05,29,01,53,13.70
2015,05,29,01,54,13.70
2015,05,29,01,55,13.70
2015,05,29,01,56,13.70
2015,05,29,01,57,13.70
2015,05,29,01,58,13.60
2015,05,29,01,59,13.60
2015,05,29,02,00,13.60
2015,05,29,02,01,13.60
2015,05,29,02,02,13.50
2015,05,29,02,03,13.50
2015,05,29,02,04,13.50
2015,05,29,02,05,13.40
2015,05,29,02,06,13.40
2015,05,29,02,07,13.30
2015,05,29,02,08,13.30
2015,05,29,02,09,13.30
2015,05,29,02,10,13.30
2015,05,29,02,11,13.30
2015,05,29,02,12,13.20
2015,05,29,02,13,13.20
2015,05,29,02,14,13.20
2015,05,29,02,15,13.10
2015,05,29,02,16,13.10
2015,05,29,02,17,13.10
2015,05,29,02,18,13.10
2015,05,29,02,19,13.10
2015,05,29,02,20,13.10
2015,05,29,02,21,13.00
2015,05,29,02,22,13.00
2015,05,29,02,23,13.00
2015,05,29,02,24,13.00
2015,05,29,02,25,12.90
2015,05,29,02,26,12.90
2015,05,29,02,27,12.90
2015,05,29,02,28,12.90
2015,05,29,02,29,12.90
2015,05,29,02,30,12.80
2015,05,29,02,31,12.80
2015,05,29,02,32,12.80
2015,05,29,02,33,12.80
2015,05,29,02,34,12.80
2015,05,29,02,35,12.80
2015,05,29,02,36,12.80
2015,05,29,02,37,12.80
2015,05,29,02,38,12.80
2015,05,29,02,39,12.70
2015,05,29,02,40,12.70
2015,05,29,02,41,12.70
2015,05,29,02,42,12.60
2015,05,29,02,43,12.60
2015,05,29,02,44,12.60
2015,05,29,02,45,12.60
2015,05,29,02,46,12.50
2015,05,29,02,47,12.50
2015,05,29,02,48,12.50
2015,05,29,02,49,12.40
2015,05,29,02,50,12.40
2015,05,29,02,51,12.40
2015,05,29,02,52,12.40
2015,05,29,02,53,12.40
2015,05,29,02,54,12.40
2015,05,29,02,55,12.30
2015,05,29,02,56,12.30
2015,05,29,02,57,12.30
2015,05,29,02,58,12.30
2015,05,29,02,59,12.30
2015,05,29,03,00,12.30
2015,05,29,03,01,12.30
2015,05,29,03,02,12.30
2015,05,29,03,03,12.30
2015,05,29,03,04,12.20
2015,05,29,03,05,12.20
2015,05,29,03,06,12.20
2015,05,29,03,07,12.20
2015,05,29,03,08,12.10
2015,05,29,03,09,12.10
2015,05,29,03,10,12.10
2015,05,29,03,11,12.00
2015,05,29,03,12,12.00
2015,05,29,03,13,12.00
2015,05,29,03,14,12.00
2015,05,29,03,15,11.90
2015,05,29,03,16,11.90
2015,05,29,03,17,11.90
2015,05,29,03,18,11.90
2015,05,29,03,19,11.90
2015,05,29,03,20,11.90
2015,05,29,03,21,11.90
2015,05,29,03,22,11.90
2015,05,29,03,23,11.90
2015,05,29,03,24,11.90
2015,05,29,03,25,11.90
2015,05,29,03,26,11.90
2015,05,29,03,27,11.90
2015,05,29,03,28,11.90
2015,05,29,03,29,11.90
2015,05,29,03,30,11.90
2015,05,29,03,31,11.90
2015,05,29,03,32,11.90
2015,05,29,03,33,11.90
2015,05,29,03,34,11.80
2015,05,29,03,35,11.80
2015,05,29,03,36,11.80
2015,05,29,03,37,11.80
2015,05,29,03,38,11.80
2015,05,29,03,39,11.80
2015,05,29,03,40,11.80
2015,05,29,03,41,11.80
2015,05,29,03,42,11.80
2015,05,29,03,43,11.80
2015,05,29,03,44,11.80
2015,05,29,03,45,11.90
2015,05,29,03,46,11.90
2015,05,29,03,47,11.90
2015,05,29,03,48,11.90
2015,05,29,03,49,11.90
2015,05,29,03,50,11.90
2015,05,29,03,51,11.90
2015,05,29,03,52,11.90
2015,05,29,03,53,12.00
2015,05,29,03,54,12.00
2015,05,29,03,55,12.00
2015,05,29,03,56,12.00
2015,05,29,03,57,12.00
2015,05,29,03,58,12.00
2015,05,29,03,59,11.90
2015,05,29,04,00,11.90
2015,05,29,04,01,11.90
2015,05,29,04,02,11.90
2015,05,29,04,03,11.90
2015,05,29,04,04,11.90
2015,05,29,04,05,11.90
2015,05,29,04,06,11.90
2015,05,29,04,07,11.90
2015,05,29,04,08,11.90
2015,05,29,04,09,11.90
2015,05,29,04,10,11.90
2015,05,29,04,11,11.90
2015,05,29,04,12,11.90
2015,05,29,04,13,11.90
2015,05,29,04,14,11.80
2015,05,29,04,15,11.80
2015,05,29,04,16,11.80
2015,05,29,04,17,11.80
2015,05,29,04,18,11.80
2015,05,29,04,19,11.80
2015,05,29,04,20,11.80
2015,05,29,04,21,11.80
2015,05,29,04,22,11.80
2015,05,29,04,23,11.80
2015,05,29,04,24,11.80
2015,05,29,04,25,11.80
2015,05,29,04,26,11.80
2015,05,29,04,27,11.80
2015,05,29,04,28,11.80
2015,05,29,04,29,11.80
2015,05,29,04,30,11.80
2015,05,29,04,31,11.80
2015,05,29,04,32,11.80
2015,05,29,04,33,11.80
2015,05,29,04,34,11.80
2015,05,29,04,35,11.80
2015,05,29,04,36,11.80
2015,05,29,04,37,11.80
2015,05,29,04,38,11.80
2015,05,29,04,39,11.80
2015,05,29,04,40,11.80
2015,05,29,04,41,11.80
2015,05,29,04,42,11.80
2015,05,29,04,43,11.80
2015,05,29,04,44,11.80
2015,05,29,04,45,11.80
2015,05,29,04,46,11.80
2015,05,29,04,47,11.80
2015,05,29,04,48,11.70
2015,05,29,04,49,11.70
2015,05,29,04,50,11.60
2015,05,29,04,51,11.60
2015,05,29,04,52,11.60
2015,05,29,04,53,11.60
2015,05,29,04,54,11.60
2015,05,29,04,55,11.50
2015,05,29,04,56,11.40
2015,05,29,04,57,11.40
2015,05,29,04,58,11.40
2015,05,29,04,59,11.40
2015,05,29,05,00,11.40
2015,05,29,05,01,11.40
2015,05,29,05,02,11.30
2015,05,29,05,03,11.30
2015,05,29,05,04,11.30
2015,05,29,05,05,11.30
2015,05,29,05,06,11.30
2015,05,29,05,07,11.30
2015,05,29,05,08,11.30
2015,05,29,05,09,11.20
2015,05,29,05,10,11.20
2015,05,29,05,11,11.20
2015,05,29,05,12,11.20
2015,05,29,05,13,11.10
2015,05,29,05,14,11.10
2015,05,29,05,15,11.10
2015,05,29,05,16,11.10
2015,05,29,05,17,11.10
2015,05,29,05,18,11.10
2015,05,29,05,19,11.10
2015,05,29,05,20,11.10
2015,05,29,05,21,11.10
2015,05,29,05,22,11.10
2015,05,29,05,23,11.10
2015,05,29,05,24,11.00
2015,05,29,05,25,10.90
2015,05,29,05,26,11.00
2015,05,29,05,27,11.10
2015,05,29,05,28,11.10
2015,05,29,05,29,11.10
2015,05,29,05,30,11.10
2015,05,29,05,31,11.10
2015,05,29,05,32,11.00
2015,05,29,05,33,10.90
2015,05,29,05,34,10.90
2015,05,29,05,35,10.90
2015,05,29,05,36,10.90
2015,05,29,05,37,10.90
2015,05,29,05,38,10.90
2015,05,29,05,39,10.90
2015,05,29,05,40,10.90
2015,05,29,05,41,10.90
2015,05,29,05,42,10.90
2015,05,29,05,43,10.90
2015,05,29,05,44,10.90
2015,05,29,05,45,10.90
2015,05,29,05,46,10.90
2015,05,29,05,47,10.90
2015,05,29,05,48,10.90
2015,05,29,05,49,10.90
2015,05,29,05,50,11.00
2015,05,29,05,51,11.00
2015,05,29,05,52,11.10
2015,05,29,05,53,11.10
2015,05,29,05,54,11.10
2015,05,29,05,55,11.10
2015,05,29,05,56,11.10
2015,05,29,05,57,11.10
2015,05,29,05,58,11.10
2015,05,29,05,59,11.10
2015,05,29,06,00,11.10
2015,05,29,06,01,11.20
2015,05,29,06,02,11.20
2015,05,29,06,03,11.20
2015,05,29,06,04,11.20
2015,05,29,06,05,11.30
2015,05,29,06,06,11.30
2015,05,29,06,07,11.30
2015,05,29,06,08,11.30
2015,05,29,06,09,11.40
2015,05,29,06,10,11.40
2015,05,29,06,11,11.40
2015,05,29,06,12,11.40
2015,05,29,06,13,11.40
2015,05,29,06,14,11.40
2015,05,29,06,15,11.40
2015,05,29,06,16,11.60
2015,05,29,06,17,11.60
2015,05,29,06,18,11.60
2015,05,29,06,19,11.60
2015,05,29,06,20,11.60
2015,05,29,06,21,11.60
2015,05,29,06,22,11.60
2015,05,29,06,23,11.70
2015,05,29,06,24,11.70
2015,05,29,06,25,11.80
2015,05,29,06,26,11.80
2015,05,29,06,27,11.80
2015,05,29,06,28,11.80
2015,05,29,06,29,11.80
2015,05,29,06,30,11.80
2015,05,29,06,31,11.80
2015,05,29,06,32,11.80
2015,05,29,06,33,11.80
2015,05,29,06,34,11.80
2015,05,29,06,35,11.80
2015,05,29,06,36,11.80
2015,05,29,06,37,11.90
2015,05,29,06,38,11.90
2015,05,29,06,39,12.00
2015,05,29,06,40,12.10
2015,05,29,06,41,12.10
2015,05,29,06,42,12.20
2015,05,29,06,43,12.20
2015,05,29,06,44,12.30
2015,05,29,06,45,12.30
2015,05,29,06,46,12.30
2015,05,29,06,47,12.30
2015,05,29,06,48,12.30
2015,05,29,06,49,12.40
2015,05,29,06,50,12.40
2015,05,29,06,51,12.50
2015,05,29,06,52,12.50
2015,05,29,06,53,12.60
2015,05,29,06,54,12.60
2015,05,29,06,55,12.70
2015,05,29,06,56,12.70
2015,05,29,06,57,12.80
2015,05,29,06,58,12.90
2015,05,29,06,59,12.90
2015,05,29,07,00,13.00
2015,05,29,07,01,13.00
2015,05,29,07,02,13.10
2015,05,29,07,03,13.10
2015,05,29,07,04,13.20
2015,05,29,07,05,13.30
2015,05,29,07,06,13.30
2015,05,29,07,07,13.30
2015,05,29,07,08,13.30
2015,05,29,07,09,13.30
2015,05,29,07,10,13.30
2015,05,29,07,11,13.30
2015,05,29,07,12,13.30
2015,05,29,07,13,13.30
2015,05,29,07,14,13.40
2015,05,29,07,15,13.40
2015,05,29,07,16,13.50
2015,05,29,07,17,13.60
2015,05,29,07,18,13.70
2015,05,29,07,19,13.70
2015,05,29,07,20,13.70
2015,05,29,07,21,13.80
2015,05,29,07,22,13.90
2015,05,29,07,23,13.90
2015,05,29,07,24,13.90
2015,05,29,07,25,14.00
2015,05,29,07,26,14.00
2015,05,29,07,27,14.10
2015,05,29,07,28,14.20
2015,05,29,07,29,14.20
2015,05,29,07,30,14.20
2015,05,29,07,31,14.20
2015,05,29,07,32,14.20
2015,05,29,07,33,14.20
2015,05,29,07,34,14.20
2015,05,29,07,35,14.20
2015,05,29,07,36,14.20
2015,05,29,07,37,14.20
2015,05,29,07,38,14.20
2015,05,29,07,39,14.20
2015,05,29,07,40,14.20
2015,05,29,07,41,14.20
2015,05,29,07,42,14.20
2015,05,29,07,43,14.20
2015,05,29,07,44,14.20
2015,05,29,07,45,14.20
2015,05,29,07,46,14.20
2015,05,29,07,47,14.20
2015,05,29,07,48,14.20
2015,05,29,07,49,14.20
2015,05,29,07,50,14.20
2015,05,29,07,51,14.20
2015,05,29,07,52,14.20
2015,05,29,07,53,14.20
2015,05,29,07,54,14.20
2015,05,29,07,55,14.20
2015,05,29,07,56,14.30
2015,05,29,07,57,14.30
2015,05,29,07,58,14.30
2015,05,29,07,59,14.30
2015,05,29,08,00,14.40
2015,05,29,08,01,14.40
2015,05,29,08,02,14.40
2015,05,29,08,03,14.50
2015,05,29,08,04,14.50
2015,05,29,08,05,14.60
2015,05,29,08,06,14.60
2015,05,29,08,07,14.70
2015,05,29,08,08,14.70
2015,05,29,08,09,14.80
2015,05,29,08,10,14.90
2015,05,29,08,11,15.00
2015,05,29,08,12,15.10
2015,05,29,08,13,15.20
2015,05,29,08,14,15.30
2015,05,29,08,15,15.30
2015,05,29,08,16,15.50
2015,05,29,08,17,15.50
2015,05,29,08,18,15.60
2015,05,29,08,19,15.60
2015,05,29,08,20,15.70
2015,05,29,08,21,15.70
2015,05,29,08,22,15.70
2015,05,29,08,23,15.70
2015,05,29,08,24,15.70
2015,05,29,08,25,15.70
2015,05,29,08,26,15.70
2015,05,29,08,27,15.80
2015,05,29,08,28,15.80
2015,05,29,08,29,15.80
2015,05,29,08,30,15.90
2015,05,29,08,31,15.90
2015,05,29,08,32,16.00
2015,05,29,08,33,16.10
2015,05,29,08,34,16.10
2015,05,29,08,35,16.10
2015,05,29,08,36,16.10
2015,05,29,08,37,16.20
2015,05,29,08,38,16.30
2015,05,29,08,39,16.40
2015,05,29,08,40,16.40
2015,05,29,08,41,16.60
2015,05,29,08,42,16.70
2015,05,29,08,43,16.70
2015,05,29,08,44,16.90
2015,05,29,08,45,16.90
2015,05,29,08,46,17.00
2015,05,29,08,47,17.20
2015,05,29,08,48,17.30
2015,05,29,08,49,17.40
2015,05,29,08,50,17.60
2015,05,29,08,51,17.80
2015,05,29,08,52,18.00
2015,05,29,08,53,18.10
2015,05,29,08,54,18.20
2015,05,29,08,55,18.30
2015,05,29,08,56,18.30
2015,05,29,08,57,18.40
2015,05,29,08,58,18.30
2015,05,29,08,59,18.20
2015,05,29,09,00,18.20
2015,05,29,09,01,18.20
2015,05,29,09,02,18.30
2015,05,29,09,03,18.40
2015,05,29,09,04,18.50
2015,05,29,09,05,18.60
2015,05,29,09,06,18.60
2015,05,29,09,07,18.70
2015,05,29,09,08,18.80
2015,05,29,09,09,18.80
2015,05,29,09,10,18.90
2015,05,29,09,11,19.10
2015,05,29,09,12,19.10
2015,05,29,09,13,19.20
2015,05,29,09,14,19.30
2015,05,29,09,15,19.40
2015,05,29,09,16,19.60
2015,05,29,09,17,19.70
2015,05,29,09,18,19.80
2015,05,29,09,19,19.80
2015,05,29,09,20,19.90
2015,05,29,09,21,19.90
2015,05,29,09,22,19.90
2015,05,29,09,23,19.90
2015,05,29,09,24,19.80
2015,05,29,09,25,19.80
2015,05,29,09,26,19.80
2015,05,29,09,27,19.80
2015,05,29,09,28,19.90
2015,05,29,09,29,20.10
2015,05,29,09,30,20.10
2015,05,29,09,31,20.20
2015,05,29,09,32,20.30
2015,05,29,09,33,20.40
2015,05,29,09,34,20.50
2015,05,29,09,35,20.50
2015,05,29,09,36,20.40
2015,05,29,09,37,20.30
2015,05,29,09,38,20.30
2015,05,29,09,39,20.20
2015,05,29,09,40,20.20
2015,05,29,09,41,20.30
2015,05,29,09,42,20.30
2015,05,29,09,43,20.40
2015,05,29,09,44,20.50
2015,05,29,09,45,20.40
2015,05,29,09,46,20.30
2015,05,29,09,47,20.20
2015,05,29,09,48,20.10
2015,05,29,09,49,20.00
2015,05,29,09,50,19.90
2015,05,29,09,51,20.00
2015,05,29,09,52,20.10
2015,05,29,09,53,20.00
2015,05,29,09,54,19.90
2015,05,29,09,55,19.90
2015,05,29,09,56,19.90
2015,05,29,09,57,19.90
2015,05,29,09,58,19.90
2015,05,29,09,59,19.90
2015,05,29,10,00,19.90
2015,05,29,10,01,19.90
2015,05,29,10,02,19.90
2015,05,29,10,03,19.90
2015,05,29,10,04,20.00
2015,05,29,10,05,20.10
2015,05,29,10,06,20.20
2015,05,29,10,07,20.30
2015,05,29,10,08,20.30
2015,05,29,10,09,20.20
2015,05,29,10,10,20.20
2015,05,29,10,11,20.10
2015,05,29,10,12,20.10
2015,05,29,10,13,20.10
2015,05,29,10,14,20.10
2015,05,29,10,15,20.10
2015,05,29,10,16,20.10
2015,05,29,10,17,20.10
2015,05,29,10,18,20.10
2015,05,29,10,19,20.00
2015,05,29,10,20,19.90
2015,05,29,10,21,19.90
2015,05,29,10,22,19.90
2015,05,29,10,23,19.90
2015,05,29,10,24,19.90
2015,05,29,10,25,19.90
2015,05,29,10,26,19.90
2015,05,29,10,27,19.90
2015,05,29,10,28,19.90
2015,05,29,10,29,20.00
2015,05,29,10,30,20.10
2015,05,29,10,31,20.00
2015,05,29,10,32,19.90
2015,05,29,10,33,19.90
2015,05,29,10,34,19.90
2015,05,29,10,35,19.90
2015,05,29,10,36,19.90
2015,05,29,10,37,19.90
2015,05,29,10,38,19.90
2015,05,29,10,39,19.90
2015,05,29,10,40,19.80
2015,05,29,10,41,19.80
2015,05,29,10,42,19.80
2015,05,29,10,43,19.70
2015,05,29,10,44,19.60
2015,05,29,10,45,19.40
2015,05,29,10,46,19.30
2015,05,29,10,47,19.20
2015,05,29,10,48,19.00
2015,05,29,10,49,18.80
2015,05,29,10,50,18.70
2015,05,29,10,51,18.50
2015,05,29,10,52,18.40
2015,05,29,10,53,18.40
2015,05,29,10,54,18.50
2015,05,29,10,55,18.60
2015,05,29,10,56,18.80
2015,05,29,10,57,18.90
2015,05,29,10,58,18.80
2015,05,29,10,59,18.80
2015,05,29,11,00,18.90
2015,05,29,11,01,18.90
2015,05,29,11,02,18.80
2015,05,29,11,03,18.70
2015,05,29,11,04,18.60
2015,05,29,11,05,18.50
2015,05,29,11,06,18.60
2015,05,29,11,07,18.60
2015,05,29,11,08,18.60
2015,05,29,11,09,18.70
2015,05,29,11,10,18.90
2015,05,29,11,11,19.10
2015,05,29,11,12,19.10
2015,05,29,11,13,19.00
2015,05,29,11,14,19.10
2015,05,29,11,15,19.20
2015,05,29,11,16,19.40
2015,05,29,11,17,19.60
2015,05,29,11,18,19.70
2015,05,29,11,19,19.70
2015,05,29,11,20,19.80
2015,05,29,11,21,19.90
2015,05,29,11,22,20.00
2015,05,29,11,23,20.10
2015,05,29,11,24,20.20
2015,05,29,11,25,20.20
2015,05,29,11,26,20.20
2015,05,29,11,27,20.00
2015,05,29,11,28,19.90
2015,05,29,11,29,19.90
2015,05,29,11,30,19.90
2015,05,29,11,31,20.00
2015,05,29,11,32,20.20
2015,05,29,11,33,20.20
2015,05,29,11,34,20.20
2015,05,29,11,35,20.20
2015,05,29,11,36,20.20
2015,05,29,11,37,20.10
2015,05,29,11,38,19.90
2015,05,29,11,39,19.70
2015,05,29,11,40,19.60
2015,05,29,11,41,19.40
2015,05,29,11,42,19.10
2015,05,29,11,43,19.10
2015,05,29,11,44,19.20
2015,05,29,11,45,19.30
2015,05,29,11,46,19.40
2015,05,29,11,47,19.30
2015,05,29,11,48,19.30
2015,05,29,11,49,19.10
2015,05,29,11,50,19.10
2015,05,29,11,51,19.10
2015,05,29,11,52,19.30
2015,05,29,11,53,19.50
2015,05,29,11,54,19.70
2015,05,29,11,55,19.90
2015,05,29,11,56,19.90
2015,05,29,11,57,20.00
2015,05,29,11,58,19.90
2015,05,29,11,59,19.70
2015,05,29,12,00,19.70
2015,05,29,12,01,19.60
2015,05,29,12,02,19.60
2015,05,29,12,03,19.80
2015,05,29,12,04,20.00
2015,05,29,12,05,20.10
2015,05,29,12,06,20.10
2015,05,29,12,07,20.10
2015,05,29,12,08,20.10
2015,05,29,12,09,20.10
2015,05,29,12,10,20.10
2015,05,29,12,11,20.20
2015,05,29,12,12,20.20
2015,05,29,12,13,20.20
2015,05,29,12,14,20.10
2015,05,29,12,15,20.10
2015,05,29,12,16,20.20
2015,05,29,12,17,20.20
2015,05,29,12,18,20.10
2015,05,29,12,19,19.90
2015,05,29,12,20,19.90
2015,05,29,12,21,19.90
2015,05,29,12,22,19.80
2015,05,29,12,23,19.60
2015,05,29,12,24,19.50
2015,05,29,12,25,19.50
2015,05,29,12,26,19.40
2015,05,29,12,27,19.50
2015,05,29,12,28,19.50
2015,05,29,12,29,19.60
2015,05,29,12,30,19.70
2015,05,29,12,31,19.80
2015,05,29,12,32,19.80
2015,05,29,12,33,19.70
2015,05,29,12,34,19.70
2015,05,29,12,35,19.70
2015,05,29,12,36,19.60
2015,05,29,12,37,19.30
2015,05,29,12,38,19.00
2015,05,29,12,39,18.90
2015,05,29,12,40,18.90
2015,05,29,12,41,18.90
2015,05,29,12,42,18.90
2015,05,29,12,43,18.90
2015,05,29,12,44,18.90
2015,05,29,12,45,18.90
2015,05,29,12,46,18.90
2015,05,29,12,47,18.90
2015,05,29,12,48,18.90
2015,05,29,12,49,19.10
2015,05,29,12,50,19.10
2015,05,29,12,51,19.10
2015,05,29,12,52,19.30
2015,05,29,12,53,19.30
2015,05,29,12,54,19.20
2015,05,29,12,55,19.20
2015,05,29,12,56,19.40
2015,05,29,12,57,19.40
2015,05,29,12,58,19.50
2015,05,29,12,59,19.50
2015,05,29,13,00,19.50
2015,05,29,13,01,19.40
2015,05,29,13,02,19.30
2015,05,29,13,03,19.10
2015,05,29,13,04,19.00
2015,05,29,13,05,19.10
2015,05,29,13,06,19.10
2015,05,29,13,07,19.00
2015,05,29,13,08,18.80
2015,05,29,13,09,18.60
2015,05,29,13,10,18.70
2015,05,29,13,11,18.90
2015,05,29,13,12,19.10
2015,05,29,13,13,19.20
2015,05,29,13,14,19.40
2015,05,29,13,15,19.60
2015,05,29,13,16,19.60
2015,05,29,13,17,19.60
2015,05,29,13,18,19.60
2015,05,29,13,19,19.70
2015,05,29,13,20,19.80
2015,05,29,13,21,19.90
2015,05,29,13,22,19.90
2015,05,29,13,23,19.80
2015,05,29,13,24,19.80
2015,05,29,13,25,19.90
2015,05,29,13,26,19.90
2015,05,29,13,27,20.00
2015,05,29,13,28,20.10
2015,05,29,13,29,20.10
2015,05,29,13,30,20.00
2015,05,29,13,31,19.90
2015,05,29,13,32,19.90
2015,05,29,13,33,19.90
2015,05,29,13,34,19.90
2015,05,29,13,35,19.90
2015,05,29,13,36,19.90
2015,05,29,13,37,19.90
2015,05,29,13,38,19.80
2015,05,29,13,39,19.70
2015,05,29,13,40,19.70
2015,05,29,13,41,19.80
2015,05,29,13,42,19.90
2015,05,29,13,43,19.90
2015,05,29,13,44,20.10
2015,05,29,13,45,20.20
2015,05,29,13,46,20.20
2015,05,29,13,47,20.20
2015,05,29,13,48,20.30
2015,05,29,13,49,20.50
2015,05,29,13,50,20.60
2015,05,29,13,51,20.80
2015,05,29,13,52,20.80
2015,05,29,13,53,20.70
2015,05,29,13,54,20.70
2015,05,29,13,55,20.70
2015,05,29,13,56,20.80
2015,05,29,13,57,20.80
2015,05,29,13,58,20.70
2015,05,29,13,59,20.50
2015,05,29,14,00,20.50
2015,05,29,14,01,20.40
2015,05,29,14,02,20.50
2015,05,29,14,03,20.40
2015,05,29,14,04,20.20
2015,05,29,14,05,20.20
2015,05,29,14,06,20.20
2015,05,29,14,07,20.20
2015,05,29,14,08,20.20
2015,05,29,14,09,20.40
2015,05,29,14,10,20.50
2015,05,29,14,11,20.50
2015,05,29,14,12,20.60
2015,05,29,14,13,20.60
2015,05,29,14,14,20.60
2015,05,29,14,15,20.60
2015,05,29,14,16,20.70
2015,05,29,14,17,20.70
2015,05,29,14,18,20.70
2015,05,29,14,19,20.60
2015,05,29,14,20,20.60
2015,05,29,14,21,20.70
2015,05,29,14,22,20.80
2015,05,29,14,23,20.90
2015,05,29,14,24,21.10
2015,05,29,14,25,21.30
2015,05,29,14,26,21.40
2015,05,29,14,27,21.40
2015,05,29,14,28,21.40
2015,05,29,14,29,21.50
2015,05,29,14,30,21.60
2015,05,29,14,31,21.60
2015,05,29,14,32,21.60
2015,05,29,14,33,21.60
2015,05,29,14,34,21.60
2015,05,29,14,35,21.60
2015,05,29,14,36,21.60
2015,05,29,14,37,21.60
2015,05,29,14,38,21.60
2015,05,29,14,39,21.70
2015,05,29,14,40,21.70
2015,05,29,14,41,21.90
2015,05,29,14,42,21.90
2015,05,29,14,43,21.80
2015,05,29,14,44,21.80
2015,05,29,14,45,21.80
2015,05,29,14,46,21.70
2015,05,29,14,47,21.80
2015,05,29,14,48,21.90
2015,05,29,14,49,21.80
2015,05,29,14,50,21.80
2015,05,29,14,51,21.80
2015,05,29,14,52,21.80
2015,05,29,14,53,21.80
2015,05,29,14,54,21.80
2015,05,29,14,55,21.80
2015,05,29,14,56,21.80
2015,05,29,14,57,21.80
2015,05,29,14,58,21.90
2015,05,29,14,59,21.90
2015,05,29,15,00,22.00
2015,05,29,15,01,22.00
2015,05,29,15,02,22.10
2015,05,29,15,03,22.30
2015,05,29,15,04,22.40
2015,05,29,15,05,22.60
2015,05,29,15,06,22.60
2015,05,29,15,07,22.60
2015,05,29,15,08,22.70
2015,05,29,15,09,22.70
2015,05,29,15,10,22.70
2015,05,29,15,11,22.70
2015,05,29,15,12,22.70
2015,05,29,15,13,22.70
2015,05,29,15,14,22.70
2015,05,29,15,15,22.70
2015,05,29,15,16,22.80
2015,05,29,15,17,22.80
2015,05,29,15,18,22.80
2015,05,29,15,19,22.80
2015,05,29,15,20,22.90
2015,05,29,15,21,22.90
2015,05,29,15,22,22.90
2015,05,29,15,23,22.90
2015,05,29,15,24,22.90
2015,05,29,15,25,23.10
2015,05,29,15,26,23.10
2015,05,29,15,27,23.10
2015,05,29,15,28,23.20
2015,05,29,15,29,23.20
2015,05,29,15,30,23.30
2015,05,29,15,31,23.30
2015,05,29,15,32,23.30
2015,05,29,15,33,23.30
2015,05,29,15,34,23.30
2015,05,29,15,35,23.30
2015,05,29,15,36,23.40
2015,05,29,15,37,23.40
2015,05,29,15,38,23.30
2015,05,29,15,39,23.30
2015,05,29,15,40,23.30
2015,05,29,15,41,23.30
2015,05,29,15,42,23.30
2015,05,29,15,43,23.30
2015,05,29,15,44,23.20
2015,05,29,15,45,23.20
2015,05,29,15,46,23.20
2015,05,29,15,47,23.30
2015,05,29,15,48,23.30
2015,05,29,15,49,23.30
2015,05,29,15,50,23.40
2015,05,29,15,51,23.60
2015,05,29,15,52,23.70
2015,05,29,15,53,23.70
2015,05,29,15,54,23.70
2015,05,29,15,55,23.70
2015,05,29,15,56,23.70
2015,05,29,15,57,23.70
2015,05,29,15,58,23.70
2015,05,29,15,59,23.70
2015,05,29,16,00,23.70
2015,05,29,16,01,23.70
2015,05,29,16,02,23.60
2015,05,29,16,03,23.60
2015,05,29,16,04,23.60
2015,05,29,16,05,23.60
2015,05,29,16,06,23.60
2015,05,29,16,07,23.70
2015,05,29,16,08,23.70
2015,05,29,16,09,23.60
2015,05,29,16,10,23.50
2015,05,29,16,11,23.30
2015,05,29,16,12,23.30
2015,05,29,16,13,23.30
2015,05,29,16,14,23.30
2015,05,29,16,15,23.30
2015,05,29,16,16,23.30
2015,05,29,16,17,23.20
2015,05,29,16,18,23.20
2015,05,29,16,19,23.20
2015,05,29,16,20,23.20
2015,05,29,16,21,23.30
2015,05,29,16,22,23.30
2015,05,29,16,23,23.40
2015,05,29,16,24,23.40
2015,05,29,16,25,23.40
2015,05,29,16,26,23.40
2015,05,29,16,27,23.40
2015,05,29,16,28,23.40
2015,05,29,16,29,23.40
2015,05,29,16,30,23.30
2015,05,29,16,31,23.30
2015,05,29,16,32,23.30
2015,05,29,16,33,23.20
2015,05,29,16,34,23.20
2015,05,29,16,35,23.10
2015,05,29,16,36,23.20
2015,05,29,16,37,23.20
2015,05,29,16,38,23.20
2015,05,29,16,39,23.20
2015,05,29,16,40,23.10
2015,05,29,16,41,23.10
2015,05,29,16,42,23.10
2015,05,29,16,43,23.10
2015,05,29,16,44,23.20
2015,05,29,16,45,23.20
2015,05,29,16,46,23.20
2015,05,29,16,47,23.20
2015,05,29,16,48,23.10
2015,05,29,16,49,23.10
2015,05,29,16,50,23.10
2015,05,29,16,51,23.10
2015,05,29,16,52,23.10
2015,05,29,16,53,23.10
2015,05,29,16,54,23.10
2015,05,29,16,55,23.10
2015,05,29,16,56,23.20
2015,05,29,16,57,23.20
2015,05,29,16,58,23.30
2015,05,29,16,59,23.30
2015,05,29,17,00,23.40
2015,05,29,17,01,23.40
2015,05,29,17,02,23.40
2015,05,29,17,03,23.50
2015,05,29,17,04,23.40
2015,05,29,17,05,23.40
2015,05,29,17,06,23.40
2015,05,29,17,07,23.40
2015,05,29,17,08,23.40
2015,05,29,17,09,23.30
2015,05,29,17,10,23.30
2015,05,29,17,11,23.30
2015,05,29,17,12,23.30
2015,05,29,17,13,23.30
2015,05,29,17,14,23.30
2015,05,29,17,15,23.30
2015,05,29,17,16,23.40
2015,05,29,17,17,23.40
2015,05,29,17,18,23.30
2015,05,29,17,19,23.30